Weather History for Kaneohe MCBH, HI

Change the Weather History Date:

Monday, July 29, 2013

  Actual Average Record
Temperature  
Mean Temperature 80 °F -  
Max Temperature 84 °F 80 °F 86 °F (2014)
Min Temperature 77 °F 73 °F 71 °F (2011)
Cooling Degree Days 16    
Growing Degree Days 30 (Base 50)    
Moisture  
Dew Point 74 °F    
Average Humidity 81    
Maximum Humidity 91    
Minimum Humidity 70    
Precipitation  
Precipitation 0.00 in - - ()
Sea Level Pressure  
Sea Level Pressure 29.89 in    
Wind  
Wind Speed 9 mph (NE)    
Max Wind Speed 17 mph    
Max Gust Speed 22 mph    
Visibility 8 miles    
Events Rain , Thunderstorm    
Averages and records for this station are not official NWS values.
T = Trace of Precipitation, MM = Missing Value Source: NWS Daily Summary

Daily Weather History Graph

Daily Weather History Graph

Search for Another Location

Airport:

Trip Planner

Search our weather history database for the weather conditions in past years. The results will help you decide how hot, cold, wet, or windy it might be!

Date:

Astronomy

Jul. 29, 2013 Rise Set
Actual Time 6:03 AM HST 7:11 PM HST
Civil Twilight 5:39 AM HST 7:35 PM HST
Nautical Twilight 5:11 AM HST 8:03 PM HST
Astronomical Twilight 4:42 AM HST 8:32 PM HST
Moon No Moon Rise 12:51 PM HST (7/29)
Length of Visible Light 13h 55m
Length of Day
13h 08m
Waning Gibbous, 48% of the Moon is Illuminated
Jul 29
Waning Gibbous
Aug 6
New
Aug 14
First Quarter
Aug 20
Full
Aug 27
Last Quarter

Hourly Weather History & Observations

Time (HST) Temp. Heat Index Dew Point Humidity Pressure Visibility Wind Dir Wind Speed Gust Speed Precip Events Conditions
12:57 AM 77.5 °F - 73.9 °F 89% 29.96 in 10.0 mi ENE 4.6 mph - N/A   Mostly Cloudy
1:04 AM 77.0 °F - 73.4 °F 89% 29.96 in 6.2 mi ENE 5.8 mph - N/A   Overcast
1:57 AM 77.5 °F - 73.0 °F 86% 29.94 in 10.0 mi ENE 6.9 mph - 0.00 in   Mostly Cloudy
2:04 AM 77.0 °F - 73.4 °F 89% 29.95 in 6.2 mi ENE 5.8 mph - N/A   Mostly Cloudy
2:46 AM 77.0 °F - 73.4 °F 89% 29.94 in 6.2 mi ENE 4.6 mph - 0.00 in   Overcast
2:57 AM 77.2 °F - 73.0 °F 87% 29.92 in 10.0 mi ENE 5.8 mph - 0.00 in   Overcast
3:04 AM 77.0 °F - 73.4 °F 89% 29.94 in 6.2 mi ENE 5.8 mph - N/A   Mostly Cloudy
3:57 AM 77.2 °F - 73.0 °F 87% 29.91 in 10.0 mi NE 4.6 mph - N/A   Mostly Cloudy
4:46 AM 77.0 °F - 73.4 °F 89% 29.92 in 6.2 mi NE 8.1 mph - 0.00 in   Overcast
4:57 AM 77.5 °F - 73.0 °F 86% 29.91 in 10.0 mi NNE 9.2 mph - 0.00 in   Overcast
5:57 AM 77.5 °F - 73.9 °F 89% 29.91 in 10.0 mi NE 9.2 mph - 0.00 in Rain Light Rain
6:57 AM 78.3 °F - 75.0 °F 90% 29.93 in 10.0 mi NNE 11.5 mph - 0.00 in   Mostly Cloudy
7:57 AM 77.9 °F - 75.0 °F 91% 29.94 in 10.0 mi NNE 12.7 mph - N/A   Mostly Cloudy
8:04 AM 78.8 °F - 75.2 °F 89% 29.95 in 6.2 mi NE 12.7 mph 18.4 mph N/A   Mostly Cloudy
8:57 AM 82.4 °F 89.2 °F 75.0 °F 78% 29.94 in 10.0 mi NNE 11.5 mph - N/A   Mostly Cloudy
9:57 AM 82.4 °F 89.2 °F 75.0 °F 78% 29.94 in 10.0 mi NE 9.2 mph - N/A   Mostly Cloudy
10:46 AM 82.4 °F 89.5 °F 75.2 °F 79% 29.94 in 6.2 mi NNE 11.5 mph - N/A   Mostly Cloudy
10:57 AM 84.2 °F 92.3 °F 75.0 °F 74% 29.93 in 10.0 mi NNE 10.4 mph - N/A   Scattered Clouds
11:57 AM 84.2 °F 91.2 °F 73.9 °F 71% 29.91 in 7.0 mi NE 11.5 mph 19.6 mph 0.00 in Rain Light Rain
12:57 PM 83.5 °F 91.2 °F 75.2 °F 76% 29.89 in 10.0 mi NNE 15.0 mph - 0.00 in Rain Light Rain
1:57 PM 83.5 °F 91.2 °F 75.2 °F 76% 29.87 in 6.0 mi NNE 17.3 mph - 0.00 in   Haze
2:08 PM 84.2 °F 90.9 °F 73.4 °F 70% 29.88 in 6.2 mi NNE 17.3 mph - N/A   Overcast
2:57 PM 84.2 °F 91.2 °F 73.9 °F 71% 29.86 in 10.0 mi NNE 16.1 mph 21.9 mph N/A   Overcast
3:39 PM 84.2 °F 90.9 °F 73.4 °F 70% 29.86 in 6.2 mi NNE 15.0 mph - 0.00 in   Mostly Cloudy
3:57 PM 84.2 °F 91.2 °F 73.9 °F 71% 29.83 in 10.0 mi NNE 12.7 mph - 0.00 in   Mostly Cloudy
4:57 PM 82.6 °F 88.8 °F 73.9 °F 75% 29.82 in 10.0 mi NNE 12.7 mph - 0.00 in   Mostly Cloudy
5:57 PM 82.4 °F 88.4 °F 73.9 °F 75% 29.82 in 10.0 mi NNE 12.7 mph - N/A   Overcast
6:04 PM 80.6 °F 85.4 °F 73.4 °F 79% 29.83 in 6.2 mi NNE 11.5 mph - N/A   Overcast
6:57 PM 81.3 °F 86.3 °F 73.0 °F 76% 29.83 in 10.0 mi NNE 15.0 mph - 0.00 in   Mostly Cloudy
7:52 PM 82.4 °F 88.2 °F 73.4 °F 74% 29.86 in 6.2 mi NNW 9.2 mph - 0.00 in Rain Light Rain
7:57 PM 81.7 °F 87.3 °F 73.9 °F 77% 29.84 in 10.0 mi NNW 9.2 mph - 0.00 in   Overcast
8:45 PM 80.6 °F 85.4 °F 73.4 °F 79% 29.86 in 6.2 mi West 4.6 mph - 0.00 in Rain , Thunderstorm Light Thunderstorms and Rain
8:57 PM 78.8 °F - 73.0 °F 82% 29.81 in 10.0 mi WNW 9.2 mph - 0.00 in Thunderstorm Thunderstorm
9:04 PM 78.8 °F - 73.4 °F 83% 29.83 in 6.2 mi SW 6.9 mph - N/A Thunderstorm Thunderstorm
9:18 PM 78.8 °F - 73.4 °F 83% 29.86 in 6.2 mi SSE 6.9 mph - N/A   Scattered Clouds
9:57 PM 78.8 °F - 73.0 °F 82% 29.87 in 7.0 mi SSE 6.9 mph - N/A   Overcast
10:17 PM 78.8 °F - 73.4 °F 83% 29.90 in 6.2 mi SSE 8.1 mph - N/A   Mostly Cloudy
10:57 PM 78.8 °F - 73.9 °F 85% 29.89 in 6.0 mi South 5.8 mph - 0.00 in Rain Light Rain
11:04 PM 78.8 °F - 73.4 °F 83% 29.91 in 6.2 mi SSE 11.5 mph 16.1 mph 0.00 in Rain Light Rain
11:45 PM 78.8 °F - 73.4 °F 83% 29.92 in 6.2 mi South 8.1 mph 16.1 mph 0.00 in   Overcast
11:57 PM 78.8 °F - 73.9 °F 85% 29.91 in 7.0 mi South 9.2 mph 17.3 mph 0.00 in   Overcast